カタログに戻る

COSMOS 2251 DEB

運用中LEO
NORAD 38054·DEBRIS·🇷🇺 Russia

打ち上げ Jun 16, 1993 から Plesetsk Cosmodrome

Loading…

次のパス (今後24時間)

TLE

最新Source: Space-Track

元期: Sep 14, 2026, 22:21 UTC

1 38054U 93036BRL 26257.93188350  .00002316  00000-0  19465-2 0  9999
2 38054  73.9522 173.3326 0349332  97.4485  33.6908 13.63807795709437

AllMySatでCOSMOS 2251 DEBをリアルタイム追跡

Download on the App Store